TimeCST,TemperatureF,Dew PointF,Humidity,Sea Level PressureIn,VisibilityMPH,Wind Direction,Wind SpeedMPH,Gust SpeedMPH,PrecipitationIn,Events,Conditions,WindDirDegrees,DateUTC
12:00 AM,65,63,92,30.01,6,North,2.3,,,,Haze,350,2012-11-01 06:00:00
12:00 AM,64.4,62.6,94,30.15,6.2,North,2.3,-,N/A,,Mostly Cloudy,350,2012-11-01 06:00:00
1:00 AM,64.4,62.6,94,30.15,6.2,Calm,Calm,-,N/A,,Mostly Cloudy,0,2012-11-01 07:00:00
2:00 AM,64.4,62.6,94,30.12,6.2,Calm,Calm,-,N/A,,Mostly Cloudy,0,2012-11-01 08:00:00
3:00 AM,64,63,95,29.96,6,Calm,Calm,,,,Haze,,2012-11-01 09:00:00
3:00 AM,64.4,62.6,94,30.09,6.2,Calm,Calm,-,N/A,,Mostly Cloudy,0,2012-11-01 09:00:00
4:00 AM,62.6,62.6,100,30.09,6.2,Calm,Calm,-,N/A,,Mostly Cloudy,0,2012-11-01 10:00:00
5:00 AM,62.6,62.6,100,30.09,6.2,Calm,Calm,-,N/A,,Mostly Cloudy,0,2012-11-01 11:00:00
6:00 AM,63,63,98,29.99,2,Calm,Calm,,,,Mist,,2012-11-01 12:00:00
6:00 AM,62.6,62.6,100,30.09,1.9,Calm,Calm,-,N/A,,Mostly Cloudy,0,2012-11-01 12:00:00
7:00 AM,62.6,62.6,100,30.12,1.9,NNE,5.8,-,N/A,,Mostly Cloudy,20,2012-11-01 13:00:00
8:00 AM,66.2,64.4,94,30.15,2.5,NNE,8.1,-,N/A,,Mostly Cloudy,20,2012-11-01 14:00:00
9:00 AM,72,64,68,29.98,6,North,10.4,,,,Haze,10,2012-11-01 15:00:00
9:00 AM,71.6,64.4,78,30.15,6.2,North,10.4,-,N/A,,Scattered Clouds,10,2012-11-01 15:00:00
10:00 AM,75.2,62.6,65,30.15,6.2,North,12.7,-,N/A,,Scattered Clouds,10,2012-11-01 16:00:00
11:00 AM,77.0,62.6,61,30.12,6.2,North,13.8,-,N/A,,Scattered Clouds,10,2012-11-01 17:00:00
12:00 PM,79,63,48,29.87,9,North,13.8,,,,Haze,0,2012-11-01 18:00:00
12:00 PM,78.8,62.6,57,30.09,6.2,North,13.8,-,N/A,,Partly Cloudy,360,2012-11-01 18:00:00
1:00 PM,80.6,60.8,51,30.06,6.2,North,13.8,-,N/A,,Scattered Clouds,10,2012-11-01 19:00:00
2:00 PM,80.6,62.6,54,30.04,6.2,North,15.0,-,N/A,,Scattered Clouds,360,2012-11-01 20:00:00
3:00 PM,78,62,48,29.81,9,North,12.7,,,,Haze,350,2012-11-01 21:00:00
3:00 PM,77.0,62.6,61,30.04,6.2,North,12.7,-,N/A,,Mostly Cloudy,350,2012-11-01 21:00:00
4:00 PM,77.0,62.6,61,30.04,6.2,North,11.5,-,N/A,,Mostly Cloudy,360,2012-11-01 22:00:00
5:00 PM,75.2,62.6,65,30.04,6.2,North,12.7,-,N/A,,Mostly Cloudy,360,2012-11-01 23:00:00
6:00 PM,71,61,64,29.88,6,North,10.4,,,,Haze,0,2012-11-02 00:00:00
6:00 PM,71.6,60.8,69,30.04,6.2,North,10.4,-,N/A,,Mostly Cloudy,360,2012-11-02 00:00:00
7:00 PM,69.8,62.6,78,30.06,6.2,NNE,4.6,-,N/A,,Scattered Clouds,20,2012-11-02 01:00:00
8:00 PM,69.8,66.2,88,30.09,6.2,NE,4.6,-,N/A,,Scattered Clouds,40,2012-11-02 02:00:00
9:00 PM,69,64,81,29.96,6,North,5.8,,,,Haze,10,2012-11-02 03:00:00
9:00 PM,68.0,64.4,88,30.12,6.2,North,5.8,-,N/A,,Mostly Cloudy,10,2012-11-02 03:00:00
10:00 PM,68.0,64.4,88,30.12,6.2,NNE,5.8,-,N/A,,Scattered Clouds,20,2012-11-02 04:00:00
11:00 PM,66.2,64.4,94,30.12,6.2,NNE,6.9,-,N/A,,Mostly Cloudy,20,2012-11-02 05:00:00